Location: Putah Creek Observatory
(38.7021°N, 122.3865°W)
Time: 23:39:51
(UTC-08:00)

Daily predictions for brighter satellites

Satellite Brightness Start Highest point End
(mag) Time Altitude Azimuth Time Altitude Azimuth Time Altitude Azimuth
Cosmos 1340 2.6 18:21:29 10° N 18:25:16 67° E 18:29:00 10° SSE
Cosmos 1602 3.8 18:21:44 10° S 18:25:33 59° E 18:29:24 10° NNE
COSMO-SKYMED 1 2.9 18:24:04 10° N 18:28:25 73° WNW 18:32:44 10° SSW
ATLAS CENTAUR R/B 3.4 18:25:22 10° S 18:28:49 17° SE 18:30:57 10° E
BREEZE-M DEB (TANK) 4.2 18:27:12 10° NNW 18:29:54 28° NNE 18:35:43 10° E
Resurs 01 Rocket 2.7 18:34:02 10° ESE 18:37:31 23° ENE 18:41:01 10° NNE
Cosmos 1741 Rocket 4.0 18:32:25 10° S 18:37:33 61° ESE 18:42:42 10° NNE
BREEZE-M DEB (TANK) 3.4 18:30:48 10° WNW 18:39:32 81° SW 18:42:29 10° SE
NOAA 12 4.1 18:39:28 10° SSE 18:44:47 78° ENE 18:50:08 10° N
GPS 2-04 Rocket1 3.3 18:41:00 10° WSW 18:45:06 51° S 18:48:43 13° E
Cosmos 1140 Rocket 3.9 18:40:51 10° SSW 18:45:56 66° WNW 18:51:05 10° NNE
Meteor 1-28 Rocket 4.2 18:42:35 10° N 18:46:18 50° WNW 18:50:00 10° SSW
Cosmos 614 Rocket 4.0 18:41:28 10° SSW 18:46:33 87° WNW 18:51:39 10° NNE
Cosmos 1633 3.2 18:43:04 10° SSW 18:46:42 62° W 18:50:22 10° N
Meteor 1-11 Rocket 3.8 18:41:52 10° S 18:47:40 85° E 18:53:38 10° N
Genesis I 3.1 18:46:50 10° NNW 18:50:47 82° ENE 18:54:42 10° SSE
Cosmos 2333 Rocket 3.2 18:46:20 10° N 18:51:06 26° NE 18:55:04 13° ESE
OTV 4 1.8 18:49:48 10° SW 18:52:21 26° SSE 18:53:54 17° ESE
FENGYUN 3A 3.9 18:47:37 10° SE 18:52:48 48° ENE 18:57:59 10° N
Okean 1 Rocket 3.1 18:50:53 10° S 18:55:23 89° W 18:59:54 10° N
GEOS 3 Rocket 4.3 18:50:45 10° NE 18:55:31 35° ESE 19:00:19 10° S
Cosmos 1570 Rocket 3.9 18:52:44 10° NNW 18:57:59 75° ENE 19:03:13 10° SSE
Cosmos 1238 Rocket 3.1 18:56:36 10° NNW 18:59:29 51° W 19:02:30 10° S
Cosmos 1025 Rocket 3.1 18:58:31 10° N 19:02:49 52° E 19:07:06 10° SSE
Cosmos 2181 Rocket 4.4 19:00:39 10° NNW 19:06:54 70° W 19:13:12 10° S
SL-19 R/B 4.5 19:01:44 10° SE 19:07:16 56° ENE 19:13:13 10° N
Spot 2 Rocket 3.6 19:05:13 10° SSE 19:10:06 52° ENE 19:15:02 10° N
Hubble Space Telescope 2.7 19:09:45 10° SW 19:12:35 18° S 19:14:18 14° SE
Cosmos 2074 Rocket 3.9 19:07:46 10° S 19:14:00 77° E 19:20:18 10° N
Meteor 1-5 Rocket 4.3 19:09:33 10° S 19:15:29 76° E 19:21:23 10° NNE
USA 229 DEB 3.8 19:08:54 10° NNW 19:16:02 69° NE 19:22:57 11° SE
USA 229 3.8 19:09:01 10° NNW 19:16:09 68° NE 19:22:58 12° SE
SL-08 ROCKET BODY 4.4 19:10:08 10° S 19:16:19 89° E 19:22:32 10° N
Cosmos 2082 4.4 19:11:36 10° SSE 19:16:30 30° ESE 19:20:07 16° NE
FengYun 1-2 T 4.1 19:13:50 10° SSE 19:19:18 82° ENE 19:24:50 10° NNW
SJ-6B 3.6 19:15:45 10° S 19:19:39 54° W 19:23:29 10° NNW
Cosmos 2184 Rocket 3.9 19:14:15 10° S 19:20:33 83° E 19:26:50 10° N
HJ-1C 3.4 19:17:17 10° S 19:20:39 82° WSW 19:24:02 10° NNW
Cosmos 405 Rocket 3.1 19:18:23 10° N 19:22:17 44° ENE 19:23:50 29° SE
Cosmos 1544 Rocket 3.8 19:18:41 10° SSE 19:22:46 43° E 19:26:52 10° NNE
Meteor 2-13 Rocket 4.4 19:18:22 10° S 19:24:17 59° E 19:30:17 10° NNE
H-2A R/B 2.5 19:21:48 10° SSE 19:25:28 68° ENE 19:29:12 10° N
CZ-2D R/B 3.3 19:24:56 30° SE 19:26:27 50° ENE 19:30:10 10° N
Envisat 4.1 19:27:13 24° ENE 19:27:13 24° ENE 19:30:51 10° NNE
Cosmos 1814 Rocket 4.5 19:22:11 10° N 19:26:58 37° ENE 19:28:10 32° E
ALOS 2.5 19:24:14 10° S 19:28:53 72° WSW 19:33:34 10° NNW
Cosmos 2237 Rocket 2.6 19:31:36 10° N 19:37:02 43° ENE 19:38:22 37° E
Cosmos 2297 Rocket 2.5 19:32:14 10° S 19:37:26 39° ESE 19:38:27 36° E
Nadezhda 3 Rocket 4.0 19:33:52 10° N 19:39:54 54° E 19:44:38 17° SSE
NOSS 0 Rocket 3.9 19:34:00 10° NNW 19:40:07 64° ENE 19:43:18 29° SE
COSMOS 2428 3.3 19:35:54 10° NNW 19:41:28 56° WSW 19:47:00 10° S
Okean 2 3.4 19:37:30 10° N 19:41:41 80° W 19:45:51 10° S
Abrixas rocket 3.9 19:39:03 10° W 19:42:00 27° NNW 19:42:43 25° N
Meteor 1-12 Rocket 4.4 19:38:47 10° S 19:44:36 56° E 19:50:22 10° NNE
NOSS 3-1 (C) 4.2 19:39:07 10° NNW 19:46:32 53° NE 19:49:43 35° ESE
Helios 1A 2.8 19:46:46 64° ESE 19:47:12 70° ENE 19:51:21 10° N
Helios 1B rocket 2.3 19:44:27 10° NNE 19:48:37 75° ESE 19:52:45 10° S
OAO 3 Rocket 4.1 19:44:31 10° SW 19:48:57 33° SSE 19:49:00 33° SSE
Cosmos 2341 Rocket 4.1 19:42:54 10° SSE 19:49:03 54° E 19:55:15 10° NNE
Cosmos 2219 Rocket 2.1 19:43:30 10° NNW 19:49:07 89° WSW 19:52:36 24° SSE
Cosmos 2154 Rocket 3.9 19:43:43 10° S 19:50:02 75° E 19:56:22 10° N
SAR-Lupe-4 3.7 19:53:33 73° WNW 19:53:33 73° WNW 19:56:57 10° NNW
Cosmos 2285 Rocket 4.3 19:47:42 10° NNW 19:54:06 68° WSW 20:00:25 10° S
Cosmos 1486 Rocket 3.9 19:49:54 10° S 19:55:09 67° ESE 19:57:37 32° NNE
Cosmos 2227 Rocket 2.0 19:52:12 10° SSW 19:57:50 80° ESE 20:02:44 14° NNE
Cosmos 1455 Rocket 2.9 19:55:48 10° S 20:00:11 86° W 20:04:35 10° N
Atlas Centaur 2 3.7 19:55:11 10° SW 20:00:54 25° SSE 20:01:07 25° SSE
Cosmos 841 Rocket 4.2 20:03:09 10° N 20:06:41 38° NNE 20:06:41 38° NNE
SL-16 R/B 3.3 20:07:42 10° N 20:11:12 30° NNE 20:11:12 30° NNE
Resurs 01 Rocket 3.5 20:10:01 10° SSW 20:13:50 29° W 20:17:42 10° NW
Cosmos 1763 Rocket 3.8 20:13:32 10° NNW 20:17:39 56° N 20:17:39 56° N
Cosmos 962 Rocket 4.4 20:13:54 10° S 20:20:06 85° W 20:26:17 10° N
Meteor 2-8 Rocket 4.3 20:17:13 10° N 20:22:58 76° NE 20:22:58 76° NE
GPS 2-04 Rocket1 4.3 20:20:36 10° W 20:23:14 34° WSW 20:23:14 34° WSW
Cosmos 2333 Rocket 3.1 20:30:06 10° NW 20:35:33 45° WSW 20:37:10 36° SSW
Cosmos 1980 4.2 20:30:47 10° NNW 20:36:17 56° WSW 20:36:39 55° WSW
NOSS 3-1 (A) 4.4 21:12:12 10° NW 21:19:06 60° W 21:19:06 60° W
Cosmos 2237 Rocket 4.1 21:16:15 10° NW 21:20:15 24° W 21:20:15 24° W
Cosmos 2297 Rocket 4.0 21:16:44 10° WSW 21:20:29 27° WNW 21:20:29 27° WNW
ATLAS 2AS CENTAUR R/B 4.1 21:18:09 10° NNW 21:23:00 35° N 21:23:00 35° N
